SCP
1 0 0 1 0 0 0 0 0 1 0 0 0 0 0 0 0 0 0 0 0 0
0 0 0 1 1 0 0 0 0 0 0 0 0 0 0 0 0 0 0 0 0 0
0 0 0 0 0 0 0 0 0 0 0 0 0 0 1 1 1 0 0 0 0 0
0 0 0 0 0 0 0 0 0 0 0 0 1 1 1 1 0 0 1 1 0 0
0 0 0 0 0 0 0 0 0 0 0 0 0 0 1 0 0 0 0 0 0 0
0 0 0 0 0 0 0 0 0 0 0 0 0 0 0 0 0 1 1 1 1 0
0 0 0 0 0 0 0 0 0 0 0 0 0 0 0 0 0 1 1 1 1 1
0 0 0 0 0 0 0 0 0 0 0 0 0 0 0 0 0 0 0 1 1 1
0 0 0 0 0 0 0 0 0 0 0 0 0 0 0 0 0 0 0 0 0 0
0 0 0 0 0 0 0 0 0 0 0 0 0 0 0 0 0 0 0 0 0 0
0 0 0 0 0 0 0 0 0 0 0 0 0 0 0 0 0 0 0 0 0 0
0 0 0 0 0 0 0 0 0 0 0 0 0 0 0 0 0 0 0 0 0 0
0 0 0 0 0 0 0 0 0 0 0 0 0 0 0 0 0 0 0 0 0 0
0 0 0 0 0 0 0 0 0 0 0 0 0 0 0 0 0 0 0 0 0 0
Wind_Speed_500mb
13 6 6 9 13 14 19 23 26 31 32 35 34 34 35 31 32 30 30 32 38 38
4 7 11 18 21 23 29 30 33 36 38 41 41 41 43 40 41 41 40 36 36 35
19 24 28 33 38 41 43 44 48 47 44 45 46 47 47 51 50 50 48 43 42 41
25 29 35 39 42 44 48 51 52 48 48 51 54 56 60 64 63 61 61 57 53 52
32 34 37 42 46 49 53 55 55 53 55 57 59 63 66 66 69 70 74 72 67 63
35 39 44 50 54 58 59 59 58 55 58 60 62 64 67 70 75 78 81 81 79 77
41 46 52 56 58 57 57 58 59 61 65 67 70 74 75 77 80 83 86 87 87 84
46 48 51 52 54 55 58 61 61 63 65 69 71 76 77 80 87 89 89 88 89 88
51 53 56 57 58 60 61 61 61 63 66 68 70 74 79 84 80 86 86 86 86 90
55 58 60 60 62 63 62 61 64 66 68 74 76 79 82 87 88 84 86 87 87 89
58 62 63 64 64 63 63 66 66 74 72 77 75 78 77 74 75 79 79 79 76 80
60 65 64 63 62 65 66 71 89 84 70 80 89 85 87 77 85 90 91 76 82 92
61 62 61 60 67 86 78 78 73 76 83 72 73 74 74 73 63 73 77 85 65 64
62 58 65 84 79 71 71 72 73 73 71 69 71 71 66 57 55 58 60 58 55 54
Wind_Direction_500mb
118 151 154 186 199 222 236 251 251 261 263 270 257 260 262 263 264 259 267 273 273 273
277 264 256 261 265 261 257 256 255 250 248 251 250 252 259 263 257 264 268 264 271 272
263 263 263 261 259 258 257 259 256 247 250 249 250 250 249 257 263 258 259 262 261 262
287 290 286 281 277 274 272 271 266 262 260 257 257 255 253 252 253 254 257 255 254 256
295 291 287 285 283 281 279 276 273 270 265 262 259 256 254 255 255 255 254 254 254 256
300 297 293 290 286 282 278 275 272 267 265 264 262 261 259 258 258 257 256 254 253 253
294 291 289 287 284 281 278 275 272 270 269 267 265 263 262 260 259 257 257 256 252 252
295 291 289 286 283 281 280 278 276 274 271 268 266 264 264 261 259 257 256 255 255 254
294 292 289 287 286 284 282 280 277 274 272 271 268 265 260 258 258 256 256 257 256 254
295 292 291 289 286 284 283 281 276 273 272 270 267 263 261 259 259 260 257 257 257 255
296 293 291 289 287 285 281 279 280 278 277 275 274 270 269 266 264 261 259 254 254 252
296 293 292 288 285 285 283 277 282 285 279 275 276 271 274 266 262 262 264 262 258 252
295 292 289 288 286 293 290 290 289 284 286 285 281 281 276 273 266 259 257 262 266 259
293 292 289 297 298 296 294 294 291 288 287 282 283 287 282 275 266 261 264 266 264 258
Wind_Speed_850mb
13 6 6 9 13 14 19 23 26 31 32 35 34 34 35 31 32 30 30 32 38 38
4 7 11 18 21 23 29 30 33 36 38 41 41 41 43 40 41 41 40 36 36 35
19 24 28 33 38 41 43 44 48 47 44 45 46 47 47 51 50 50 48 43 42 41
25 29 35 39 42 44 48 51 52 48 48 51 54 56 60 64 63 61 61 57 53 52
32 34 37 42 46 49 53 55 55 53 55 57 59 63 66 66 69 70 74 72 67 63
35 39 44 50 54 58 59 59 58 55 58 60 62 64 67 70 75 78 81 81 79 77
41 46 52 56 58 57 57 58 59 61 65 67 70 74 75 77 80 83 86 87 87 84
46 48 51 52 54 55 58 61 61 63 65 69 71 76 77 80 87 89 89 88 89 88
51 53 56 57 58 60 61 61 61 63 66 68 70 74 79 84 80 86 86 86 86 90
55 58 60 60 62 63 62 61 64 66 68 74 76 79 82 87 88 84 86 87 87 89
58 62 63 64 64 63 63 66 66 74 72 77 75 78 77 74 75 79 79 79 76 80
60 65 64 63 62 65 66 71 89 84 70 80 89 85 87 77 85 90 91 76 82 92
61 62 61 60 67 86 78 78 73 76 83 72 73 74 74 73 63 73 77 85 65 64
62 58 65 84 79 71 71 72 73 73 71 69 71 71 66 57 55 58 60 58 55 54
Wind_Direction_850mb
118 151 154 186 199 222 236 251 251 261 263 270 257 260 262 263 264 259 267 273 273 273
277 264 256 261 265 261 257 256 255 250 248 251 250 252 259 263 257 264 268 264 271 272
263 263 263 261 259 258 257 259 256 247 250 249 250 250 249 257 263 258 259 262 261 262
287 290 286 281 277 274 272 271 266 262 260 257 257 255 253 252 253 254 257 255 254 256
295 291 287 285 283 281 279 276 273 270 265 262 259 256 254 255 255 255 254 254 254 256
300 297 293 290 286 282 278 275 272 267 265 264 262 261 259 258 258 257 256 254 253 253
294 291 289 287 284 281 278 275 272 270 269 267 265 263 262 260 259 257 257 256 252 252
295 291 289 286 283 281 280 278 276 274 271 268 266 264 264 261 259 257 256 255 255 254
294 292 289 287 286 284 282 280 277 274 272 271 268 265 260 258 258 256 256 257 256 254
295 292 291 289 286 284 283 281 276 273 272 270 267 263 261 259 259 260 257 257 257 255
296 293 291 289 287 285 281 279 280 278 277 275 274 270 269 266 264 261 259 254 254 252
296 293 292 288 285 285 283 277 282 285 279 275 276 271 274 266 262 262 264 262 258 252
295 292 289 288 286 293 290 290 289 284 286 285 281 281 276 273 266 259 257 262 266 259
293 292 289 297 298 296 294 294 291 288 287 282 283 287 282 275 266 261 264 266 264 258